Regional Weather Roundup
Issued by NWS Burlington, VT

Home | Current Version | Previous Version | Text Only | Print | Product List | Glossary On
Versions: 1 2 3 4 5 6 7 8 9 10 11 12 13 14 15 16 17 18 19 20 21 22 23 24 25 26 27 28 29 30 31 32 33 34 35 36 37 38 39 40 41 42 43 44 45 46 47 48 49 50
000
ASUS41 KBTV 290110
RWRBTV
VERMONT REGIONAL WEATHER ROUNDUP
NATIONAL WEATHER SERVICE BURLINGTON VT
900 PM EDT THU MAY 28 2015

NOTE: "FAIR" INDICATES FEW OR NO CLOUDS BELOW 12,000 FEET WITH NO
SIGNIFICANT WEATHER AND/OR OBSTRUCTIONS TO VISIBILITY.

* THESE REPORTS ARE NOT UNDER NWS QUALITY CONTROL AND/OR DO NOT
  REPORT WEATHER SUCH AS PRECIPITATION AND FOG.

VTZ001>019-290200-
_____VERMONT_____


CITY           SKY/WX    TMP DP  RH WIND       PRES   REMARKS
BURLINGTON     CLOUDY    66  55  67 NW5       30.22R
MONTPELIER     MOCLDY    61  55  81 VRB5      30.26R
MORRISVILLE    CLOUDY    65  56  72 W5        30.22R
LYNDONVILLE*   CLOUDY    63  55  75 W8        30.22R
MIDDLEBURY*    CLOUDY    64  58  79 CALM      30.23R
RUTLAND*       CLOUDY    64  52  63 NW5       30.23R
SPRINGFIELD    CLEAR     66  53  63 CALM      30.21R
HIGHGATE*      CLOUDY    62  61  97 CALM      30.21R
NEWPORT*       RAIN      60  59  97 CALM      30.21R
BENNINGTON     PTCLDY    64  53  67 W7        30.23S
SUTTON*          N/A     59 N/A N/A MISG        N/A

_____LAKE CHAMPLAIN_____


CITY           SKY/WX    TMP DP  RH WIND       PRES   REMARKS

$$

NYZ007-026>031-035-052-083-290200-
_____NORTHERN NEW YORK_____


CITY           SKY/WX    TMP DP  RH WIND       PRES   REMARKS
PLATTSBURGH    CLOUDY    66  56  70 NW6       30.21R
SARANAC LAKE   CLEAR     55  54  96 W3        30.26R
MASSENA        CLEAR     58  54  86 CALM      30.24R
OGDENSBURG*    CLEAR     59  55  88 N3        30.24R
POTSDAM*       CLEAR     57  57 100 CALM      30.25R
WATERTOWN      CLEAR     60  53  77 S3        30.25R
FT DRUM        CLEAR     61  57  86 SW3       30.25R
ALBANY         MOCLDY    68  54  60 NW7       30.24R
GLENS FALLS    PTCLDY    66  53  63 NW7       30.22S

$$
NHZ002-005-011-290200-
_____NEW HAMPSHIRE_____


CITY           SKY/WX    TMP DP  RH WIND       PRES   REMARKS
LEBANON        PTCLDY    62  55  77 SE3       30.20R
KEENE          CLEAR     66  54  63 CALM      30.20R
MT WASHINGTON  LGT RAIN  45  45 100 NW35G44     N/A  VSB 0
PLYMOUTH       MOCLDY    66  59  78 W6        30.18R
WHITEFIELD     CLOUDY    65  56  72 W6        30.19R

$$

_____REGIONAL QUEBEC LOCATIONS_____


CITY           SKY/WX    TMP DP  RH WIND       PRES   REMARKS
MONTREAL       MOCLDY    66  57  72 NW8       30.21R
QUEBEC CITY    PTCLDY    61  52  72 N8        30.18R
SHERBROOKE     CLOUDY    61 N/A N/A W6        30.20R

_____REGIONAL ONTARIO LOCATIONS_____


CITY           SKY/WX    TMP DP  RH WIND       PRES   REMARKS
OTTAWA         PTCLDY    63  54  72 N5        30.24R

______KEY______
VSB  - VISIBILITY IN MILES
WCI  - WIND CHILL INDEX
HX   - HEAT INDEX
$$
NNNN



USA.gov is the U.S. government's official web portal to all federal, state and local government web resources and services.